Simultaneous Nadir Overpasses (SNOs) Predictions

Prediction of SNOs between NOAA-15 and METOP-C Satellite Orbit:

Table of predicted SNOs for the next 14.0 days since TLE Epoch: 3/11/2023
Index Date (NOAA-15) Time (NOAA-15) Lat,Lon (NOAA-15) SZA (NOAA-15 ) Date (METOP-C) Time (METOP-C) Lat,Lon (METOP-C) SZA (METOP-C ) Distance(km) Time Diff (sec)
1 03/14/2023 18:50:56 -81.08, 115.63 94.84 03/14/2023 18:49:53 -81.07, 115.73 94.87 2.21 63
2 03/14/2023 19:41:29 81.08, -76.92 85.15 03/14/2023 19:40:32 81.08, -76.74 85.15 3.08 57
3 03/14/2023 20:31:57 -81.08, 90.46 94.87 03/14/2023 20:31:14 -81.08, 90.58 94.87 2.11 43
4 03/14/2023 21:22:30 81.07,-102.08 85.13 03/14/2023 21:21:54 81.07,-102.26 85.10 3.12 36
5 03/14/2023 22:12:58 -81.08, 65.29 94.89 03/14/2023 22:12:35 -81.09, 65.43 94.87 2.71 23
6 03/14/2023 23:03:31 81.07,-127.24 85.11 03/14/2023 23:03:15 81.08,-127.41 85.10 3.02 16
7 03/14/2023 23:54:00 -81.09, 39.76 94.93 03/14/2023 23:53:57 -81.08, 39.91 94.92 2.82 3
8 03/15/2023 00:44:33 81.08,-152.78 85.07 03/15/2023 00:44:37 81.07,-152.93 85.05 2.88 4
9 03/15/2023 01:35:01 -81.08, 14.59 94.95 03/15/2023 01:35:18 -81.09, 14.77 94.93 3.00 17
10 03/15/2023 02:25:34 81.08,-177.94 85.05 03/15/2023 02:25:58 81.08,-178.08 85.04 2.40 24
11 03/15/2023 03:16:02 -81.08, -10.57 94.97 03/15/2023 03:16:40 -81.08, -10.75 94.98 3.14 38
12 03/15/2023 04:06:35 81.07, 156.90 85.02 03/15/2023 04:07:19 81.09, 156.78 85.04 2.56 44
13 03/15/2023 04:57:03 -81.08, -35.74 95.00 03/15/2023 04:58:01 -81.09, -35.90 94.98 3.11 58
14 03/15/2023 05:47:37 81.09, 131.37 84.98 03/15/2023 05:48:41 81.08, 131.25 84.99 2.07 64



Historial Predications of SNOs between NOAA-15 and METOP-C
